This demonstration page uses our WeatherBlox Daily Observations layout. Learn more.

Left ArrowRight Arrow

Hourly Observations for May 30, 2015

Temp ( °F °C ) Dew Point ( °F °C ) Humidity (%) Winds ( mph kmh ) Pressure ( in mb ) Visibility ( mi km ) Precip ( " mm )
12:53 am 00:53 Clear 70 21.1 68 20 93 93 Calm 30.05 1018 10 16 0.00 0.00
1:53 am 01:53 Partly Cloudy 68 20 67 19.4 96 96 Calm 30.05 1018 10 16 0.00 0.00
2:53 am 02:53 Mostly Clear 69 20.6 66 18.9 90 90 Calm 30.04 1017 10 16 0.00 0.00
3:53 am 03:53 Mostly Clear 68 20 66 18.9 93 93 Calm 30.04 1017 10 16 0.00 0.00
4:53 am 04:53 Partly Cloudy 68 20 66 18.9 93 93 Calm 30.04 1017 10 16 0.00 0.00
5:53 am 05:53 Partly Cloudy 69 20.6 66 18.9 90 90 Calm 30.04 1017 10 16 0.00 0.00
6:53 am 06:53 Sunny 69 20.6 66 18.9 90 90 SSW 3 6 30.06 1018 10 16 0.00 0.00
7:53 am 07:53 Mostly Sunny 74 23.3 67 19.4 79 79 SSW 6 9 30.06 1018 10 16 0.00 0.00
8:53 am 08:53 Sunny 76 24.4 68 20 77 77 SW 7 11 30.07 1018 10 16 0.00 0.00
9:53 am 09:53 Cloudy 75 23.9 67 19.4 76 76 SSW 8 13 30.08 1019 10 16 0.00 0.00
10:53 am 10:53 Mostly Sunny 80 26.7 69 20.6 69 69 VRB 6 9 30.06 1018 10 16 0.00 0.00
11:53 am 11:53 Mostly Cloudy 82 27.8 68 20 63 63 VRB 5 7 30.05 1018 10 16 0.00 0.00
12:53 pm 12:53 Partly Cloudy 83 28.3 68 20 61 61 SW 8 13 30.03 1017 10 16 0.00 0.00
1:53 pm 13:53 Partly Cloudy 81 27.2 70 21.1 69 69 W 6 9 30.01 1016 10 16 0.03 0.76
2:53 pm 14:53 Mostly Sunny 85 29.4 68 20 57 57 SSW 12 19 29.98 1015 10 16 0.00 0.00
3:53 pm 15:53 Partly Cloudy 84 28.9 66 18.9 55 55 S 9 15 29.96 1015 10 16 0.00 0.00
4:49 pm 16:49 Mostly Cloudy with Thunderstorms 82 28 66 19 58 58 WSW 10 17 29.94 1014 10 16 0.00 0.00
4:53 pm 16:53 Cloudy with Thunderstorms 79 26.1 65 18.3 62 62 WSW 14 22 29.97 1015 6 10 0.00 0.03
5:13 pm 17:13 Cloudy with Nearby Thunderstorms 72 22.2 67 19.4 84 84 Calm 29.97 1015 9 14 0.03 0.76
5:35 pm 17:35 Mostly Sunny 73 22.8 67 19.4 81 81 W 3 6 29.97 1015 10 16 0.03 0.76
5:53 pm 17:53 Sunny 75 23.9 68 20 79 79 W 3 6 29.94 1014 10 16 0.03 0.76
6:53 pm 18:53 Partly Cloudy 81 27.2 70 21.1 69 69 VRB 3 6 29.94 1014 10 16 0.00 0.00
7:23 pm 19:23 Partly Cloudy with Nearby Thunderstorms 79 26.1 67 19.4 67 67 SW 6 9 29.97 1015 10 16 0.00 0.00
7:53 pm 19:53 Partly Cloudy 79 26.1 66 18.9 65 65 SW 5 7 29.94 1014 10 16 0.00 0.00
8:53 pm 20:53 Sunny 73 22.8 67 19.4 81 81 Calm 29.96 1014 10 16 0.00 0.00
9:53 pm 21:53 Clear 74 23.3 65 18.3 74 74 Calm 29.95 1014 10 16 0.00 0.00
10:53 pm 22:53 Mostly Cloudy 75 23.9 65 18.3 71 71 VRB 3 6 29.96 1015 10 16 0.00 0.00
11:53 pm 23:53 Partly Cloudy 76 24.4 65 18.3 69 69 S 5 7 29.95 1014 10 16 0.00 0.00

Powered by AerisWeather